COSMOS 1933

Last updated on Sun Aug 09 2026 00:02:09 GMT+0000 (Coordinated Universal Time)

1 18958U 88020A 26220.60986814 .00002067 00000+0 97207-4 0 9996 2 18958 82.5122 100.5118 0005269 47.5288 312.6391 15.19028145 73286
UTC large
Height (km)
Speed (km/s)
/
Latitude / Longitude
Inclination (degrees)
Orbital Period (minutes)
Azimuth
Elevation
Range (km)
Doppler Factor

Next 0 passes for location: London (51.5072 / 0.1276)

No passes found over London.
COSMOS 1933